Location: Ariel
(45.9570°N, 122.5700°W)
Time: 00:01:23
(UTC-07:00)

Altair - Pass Details

Date: 27 July 2019
Orbit: 1501 x 1683 km, 47.2° (Epoch: 21 August)

Event Time Altitude Azimuth Distance (km) Brightness Sun altitude
Rises 08:48:36 0° 177° (S) 4,698 10.1 29.5°
Reaches altitude 10° 08:53:26 10° 156° (SSE) 3,689 9.9 30.3°
Maximum altitude 08:58:06 15° 125° (SE) 3,283 10.4 31.1°
Drops below altitude 10° 09:02:43 10° 94° (E) 3,659 11.1 31.9°
Sets 09:07:26 0° 73° (ENE) 4,637 10.9 32.7°
